Location: Newark
(51.2625°N, 13.3939°E)
Time: 10:40:49
(UTC+00:00)

Explorer 7 - Pass Details

Date: 19 November 2019
Orbit: 485 x 680 km, 50.3° (Epoch: 11 December)

Event Time Altitude Azimuth Distance (km) Brightness Sun altitude
Rises 23:10:08 0° 224° (SW) 2,949 - -58.1°
Reaches altitude 10° 23:12:39 10° 216° (SW) 2,013 - -58.0°
Maximum altitude 23:16:50 34° 151° (SSE) 1,001 - -57.9°
Drops below altitude 10° 23:20:49 10° 86° (E) 1,910 - -57.8°
Sets 23:23:09 0° 77° (ENE) 2,776 - -57.7°
